Location: Coigny
(49.3236°N, 1.3845°W)
Time: 04:32:08
(UTC+00:00)

Daily predictions for brighter satellites

Satellite Brightness Start Highest point End
(mag) Time Altitude Azimuth Time Altitude Azimuth Time Altitude Azimuth
Cosmos 1707 Rocket 3.5 00:00:04 10° N 00:04:26 78° E 00:05:18 56° SSE
Okean 1 3.4 00:00:48 10° N 00:04:50 65° ENE 00:05:27 55° SE
Gbstr 26 Del rocket 4.3 00:06:27 10° W 00:08:35 25° WSW 00:08:35 25° WSW
Cosmos 2285 Rocket 3.9 00:07:13 10° NNW 00:13:32 77° WSW 00:16:07 38° S
Cosmos 2333 Rocket 2.2 00:08:30 10° NNW 00:14:08 71° WSW 00:16:02 42° S
Cosmos 494 Rocket 4.4 00:13:18 40° SE 00:14:28 48° ESE 00:19:23 10° NNE
Cosmos 1833 4.4 00:14:05 31° SW 00:16:57 72° WNW 00:22:46 10° NNE
Meteor 1-25 Rocket 4.2 00:18:07 41° SSW 00:20:12 84° W 00:25:51 10° N
Cosmos 2084 3.4 00:20:13 50° WSW 00:21:12 78° NW 00:25:25 10° NE
ATLAS 5 CENTAUR R/B 2.7 00:17:07 10° NW 00:22:24 59° NE 00:28:42 10° ESE
Cosmos 2360 Rocket 3.2 00:19:02 10° NW 00:23:56 31° WSW 00:25:09 28° SW
Cosmos 1805 Rocket 4.2 00:22:54 37° WSW 00:24:09 47° WNW 00:28:29 10° N
Cosmos 1452 Rocket 3.7 00:20:28 10° NNW 00:25:38 56° WSW 00:26:57 43° SSW
PSLV R/B 3.8 00:22:15 10° NNE 00:27:02 77° ESE 00:28:18 49° S
Meteor 1-19 Rocket 4.2 00:24:03 10° NNW 00:29:48 75° W 00:31:46 42° S
Cosmos 1666 3.5 00:29:45 36° ESE 00:30:10 38° E 00:33:46 10° NNE
Cosmos 2322 3.9 00:24:57 10° NW 00:30:32 57° WSW 00:32:14 41° SSW
Meteor 1-14 Rocket 4.4 00:30:32 38° SSE 00:32:29 59° E 00:37:59 10° NNE
Resurs 1-4 Rocket 3.8 00:37:33 10° NE 00:41:39 22° E 00:44:08 16° SE
Cosmos 2297 Rocket 3.4 00:46:29 25° SE 00:48:24 30° ESE 00:53:16 10° NE
NOSS 3-1 (C) 4.3 00:42:28 10° NW 00:49:44 54° WSW 00:54:01 30° S
Cosmos 2237 Rocket 2.6 00:44:51 10° NNW 00:50:31 63° ENE 00:54:35 19° SE
Cosmos 2322 Rocket 4.3 00:49:31 10° WNW 00:51:07 11° W 00:52:15 11° WSW
Meteor 2-17 Rocket 4.5 00:54:55 35° S 00:57:36 73° E 01:03:38 10° NNE
Cosmos 2227 Rocket 3.5 00:56:52 22° SE 00:59:02 28° ESE 01:03:45 10° NE
Cosmos 1110 Rocket 4.2 00:53:54 10° NNW 00:59:07 56° WSW 01:00:40 41° SSW
USA 229 DEB 3.9 00:53:23 10° NW 01:00:37 67° SW 01:05:34 24° SSE
USA 229 3.9 00:53:28 10° NW 01:00:43 67° SW 01:05:44 23° SSE
Cosmos 1709 Rocket 4.3 00:58:20 30° SSE 01:01:26 61° E 01:07:42 10° NNE
Cosmos 1470 Rocket 3.4 01:00:37 52° SSW 01:01:38 85° W 01:05:59 10° N
Meteor 2-4 Rocket 3.8 00:56:52 10° NNW 01:02:47 71° W 01:05:15 36° S
EO 1 Del DPAF 3.0 00:59:30 10° NNE 01:03:16 87° W 01:03:46 65° SSW
COSMOS 2487 3.8 01:07:03 26° W 01:07:44 28° WNW 01:10:43 10° N
NOSS 0 Rocket 3.9 01:02:12 10° NNW 01:08:25 70° WSW 01:11:32 31° S
Cosmos 1933 Rocket 3.6 01:07:31 46° S 01:08:47 76° E 01:13:15 10° NNE
Cosmos 1745 Rocket 4.0 01:06:16 35° SSW 01:09:05 76° W 01:15:23 10° N
Cosmos 1331 Rocket 4.3 01:05:17 10° NNW 01:10:21 50° WSW 01:11:47 39° SSW
COSMOS 2428 3.3 01:05:57 10° NW 01:11:13 39° WSW 01:12:40 34° SW
USA 267 4.3 01:05:42 10° ENE 01:11:52 46° N 01:18:03 10° WNW
YAOGAN 11 4.1 01:10:25 41° SSE 01:12:01 87° WSW 01:16:36 10° NNW
Cosmos 1633 Rocket 3.9 01:10:54 32° WSW 01:12:09 40° WNW 01:16:18 10° N
Cosmos 1500 4.1 01:11:31 34° W 01:12:12 37° WNW 01:15:49 10° N
SL-16 R/B 3.5 01:07:58 10° NNW 01:13:16 39° NE 01:18:32 10° ESE
Lacrosse 5 3.4 01:12:35 20° SE 01:13:21 21° SE 01:17:03 10° ENE
MOZ.5/SAFIR/RUBIN 5/SL-8 3.8 01:11:26 35° SSE 01:13:26 83° ENE 01:18:12 10° NNW
CZ-2D R/B 3.0 01:10:55 10° NNE 01:15:58 40° E 01:18:42 24° SSE
ADEOS Rocket 3.8 01:11:00 10° SE 01:16:15 42° ENE 01:21:24 10° N
Okean 1-7 2.9 01:12:28 10° N 01:16:46 85° E 01:18:05 44° SSE
COSMOS 2455 3.2 01:14:39 24° WSW 01:18:16 60° NW 01:24:14 10° NNE
SL-16 R/B 2.9 01:13:31 16° SE 01:18:25 62° ENE 01:24:31 10° N
Cosmos 1544 3.9 01:18:15 35° SE 01:19:06 41° E 01:22:33 10° NNE
Helios 1A 2.9 01:18:25 44° S 01:19:44 84° WSW 01:24:00 10° NNW
Okean 3 4.0 01:16:37 10° N 01:20:52 55° ENE 01:22:53 28° SE
NOSS 3-1 (A) 4.2 01:13:37 10° NW 01:20:56 56° WSW 01:26:38 22° S
Meteor 1-5 Rocket 4.2 01:18:51 35° SSW 01:21:18 76° WNW 01:27:08 10° N
Cosmos 2219 Rocket 3.2 01:16:59 10° NW 01:21:37 27° WSW 01:22:37 26° WSW
ARGOS Delta rocket 3.7 01:19:13 10° N 01:24:06 86° W 01:25:47 40° SSW
ADEOS II 3.8 01:20:14 10° NE 01:24:30 25° E 01:28:02 13° SE
MINOTAUR IV R/B 4.5 01:20:22 10° NNW 01:24:56 80° WSW 01:26:47 36° SSE
Cosmos 1340 Rocket 2.6 01:27:12 51° SSW 01:28:07 83° WNW 01:32:03 10° N
CZ-4 R/B 3.9 01:23:58 10° NNE 01:28:57 86° WNW 01:31:02 36° SSW
Cosmos 1743 3.7 01:33:42 27° SE 01:35:10 39° E 01:38:45 10° NNE
Cosmos 1269 Rocket 4.0 01:34:36 35° SSW 01:36:56 87° ESE 01:42:15 10° NNE
NOSS 2-2 (D) 4.3 01:32:15 10° NW 01:37:24 88° NE 01:44:42 10° SE
ASTEX 1 3.3 01:38:33 34° S 01:40:40 74° W 01:45:35 10° N
Helios 1B rocket 3.4 01:39:42 10° NNE 01:43:35 39° E 01:45:31 24° SSE
Cosmos 2219 3.4 01:42:03 30° S 01:44:57 66° ESE 01:50:40 10° NNE
Cosmos 1703 Rocket 3.9 01:41:26 10° NNW 01:45:37 48° W 01:46:53 36° SW
Cosmos 1066 Rocket 4.3 01:40:18 10° NNW 01:46:10 76° W 01:49:38 26° S
Cosmos 2084 Rocket 3.3 01:49:49 10° NW 01:54:00 72° SW 01:57:52 13° SSE
Meteor 1-11 Rocket 3.7 01:54:11 29° SSW 01:57:08 75° WNW 02:02:41 10° N
Cosmos 2333 Rocket 4.2 01:55:24 10° WNW 01:57:22 12° W 01:58:00 12° WSW
Cosmos 2181 Rocket 4.0 01:51:17 10° NNW 01:57:39 71° W 02:01:43 23° S
Cosmos 1992 Rocket 3.9 01:55:16 10° NNW 02:00:32 80° WSW 02:04:37 17° SSE
Cosmos 2082 4.4 02:02:39 21° S 02:06:15 47° ESE 02:11:44 10° NE
ATLAS 5 CENTAUR R/B 2.9 02:01:52 10° NW 02:07:01 36° WSW 02:10:23 22° S
Cosmos 1733 Rocket 3.8 02:05:38 19° SSE 02:08:35 48° E 02:12:53 10° NNE
Cosmos 1980 4.4 02:04:43 10° NW 02:09:47 35° WSW 02:12:05 25° SSW
Cosmos 1842 3.9 02:06:03 10° N 02:09:50 52° ENE 02:13:03 14° SSE
Cosmos 1378 4.4 02:07:23 10° NW 02:10:24 24° W 02:10:57 23° WSW
CZ-4C R/B 3.5 02:04:01 10° NW 02:10:50 59° NE 02:18:56 10° ESE
Intercosmos 25 Rocket 4.3 02:10:54 25° WSW 02:12:11 33° WNW 02:16:14 10° N
Cosmos 1536 3.5 02:15:44 28° SW 02:17:20 42° WNW 02:21:11 10° N
IDEFIX/ARIANE 42P 3.7 02:12:30 10° NNE 02:17:20 38° E 02:22:01 11° SSE
Resurs 1-4 Rocket 2.3 02:16:38 10° N 02:21:53 61° WNW 02:25:12 22° SW
Meteor 1-29 3.1 02:27:56 10° NNE 02:31:14 63° ESE 02:33:12 22° S
Cosmos 2251 Rocket 3.6 02:27:52 20° SSW 02:31:31 75° ESE 02:36:50 10° NNE
Cosmos 2297 Rocket 2.7 02:28:17 19° SW 02:32:12 52° NW 02:37:46 10° NNE
Cosmos 1869 Rocket 4.5 02:30:58 21° SW 02:33:18 36° WNW 02:37:28 10° N
Cosmos 2237 Rocket 3.3 02:29:38 10° NW 02:34:08 25° WSW 02:36:21 19° SW
NPP 3.9 02:29:39 10° N 02:34:59 60° WNW 02:38:43 20° SW
Okean 2 3.7 02:35:25 10° N 02:39:35 69° ENE 02:43:44 10° SSE
Nadezhda 3 Rocket 4.0 02:33:35 10° N 02:40:00 87° W 02:46:21 10° S
Cosmos 2227 Rocket 2.6 02:38:41 18° SW 02:42:46 56° NW 02:48:21 10° NNE
Cosmos 1238 Rocket 2.9 02:40:33 16° SSE 02:42:47 50° E 02:46:05 10° NNE
Cosmos 2221 Rocket 3.9 02:39:52 10° NNW 02:44:16 52° W 02:47:39 17° SSW
Timation 2 Rocket 4.1 02:46:39 17° SW 02:51:17 66° NW 02:57:24 10° NNE
Cosmos 2327 Rocket 4.5 02:46:02 13° S 02:51:39 86° W 02:57:51 10° N
CZ-4C R/B 3.7 02:48:09 10° SSE 02:52:11 72° ENE 02:56:28 10° N
USA 267 4.1 02:47:58 10° E 02:54:17 54° NNE 03:00:38 10° WNW
Lacrosse 5 1.9 02:51:46 17° SW 02:55:44 86° SE 03:00:50 10° ENE
Meteor 2-9 Rocket 4.1 02:51:21 14° SSW 02:55:53 81° WNW 03:01:17 10° N
CZ-2D R/B 3.1 02:51:08 10° N 02:55:58 35° WNW 03:00:01 14° WSW
SL-16 R/B 2.6 02:52:07 10° NW 02:57:26 43° WSW 03:02:44 10° S
Cosmos 1140 Rocket 4.1 02:54:34 10° S 02:59:39 53° ESE 03:04:46 10° NNE
ADEOS Rocket 3.6 02:57:57 15° SSW 03:01:57 32° W 03:06:53 10° NNW
SL-16 R/B 3.6 02:58:37 15° SW 03:02:28 27° W 03:07:36 10° NW
ARIANE 5 R/B 3.5 02:58:04 10° NNE 03:03:02 45° E 03:08:00 10° S
ADEOS II 2.4 02:59:22 10° N 03:04:31 55° WNW 03:08:58 14° SW
Cosmos 1674 Rocket 3.8 03:02:56 10° NNW 03:07:13 51° W 03:11:31 10° S
Cosmos 2184 Rocket 4.5 03:02:50 14° SW 03:07:54 46° WNW 03:13:56 10° N
ATLAS CENTAUR R/B 3.4 03:08:13 10° SSE 03:10:56 19° ESE 03:13:46 10° ENE
Cosmos 1743 4.5 03:08:46 12° WSW 03:11:05 19° WNW 03:13:54 10° NNW
Cosmos 2263 Rocket 2.8 03:05:45 10° S 03:11:15 56° ESE 03:16:50 10° NE
Cosmos 2154 Rocket 4.2 03:09:01 12° SSW 03:14:41 57° WNW 03:20:49 10° N
Cosmos 1461 3.6 03:10:48 11° SSW 03:14:59 53° ESE 03:19:20 10° NE
Meteor 1-28 Rocket 4.1 03:12:37 13° SSW 03:15:22 30° W 03:18:42 10° NNW
IRS-1D 3.7 03:11:15 10° N 03:16:06 56° WNW 03:20:43 11° SW
Cosmos 1975 3.2 03:13:47 13° SSW 03:17:14 49° WNW 03:21:13 10° N
Helios 1B rocket 3.9 03:15:20 10° N 03:18:38 24° WNW 03:21:48 11° WSW
Cosmos 1975 Rocket 3.6 03:20:16 10° N 03:24:41 64° ENE 03:29:01 10° SSE
SWARM A 4.5 03:21:51 10° SSW 03:25:02 51° W 03:28:18 10° N
In-Cosmos 22 4.3 03:19:27 10° NNW 03:25:13 72° W 03:30:56 10° S
KORONAS-FOTON 4.0 03:23:54 10° N 03:27:51 78° E 03:31:45 10° SSE
Cosmos 1378 Rocket 4.3 03:25:06 10° NNW 03:29:07 35° W 03:33:04 10° SSW
Cosmos 1707 3.2 03:30:08 10° NNW 03:33:45 39° W 03:37:20 10° SSW
GEOS 3 Rocket 3.8 03:28:51 10° SSE 03:34:06 55° SW 03:39:20 10° NW
Iridium 4 Rocket 4.4 03:29:14 10° NNW 03:34:06 36° W 03:39:15 10° SSW
Cosmos 44 3.4 03:30:15 10° NW 03:35:32 69° SW 03:40:29 10° SSE
Cosmos 1908 Rocket 3.7 03:33:47 10° SSW 03:38:02 56° WNW 03:42:20 10° N
Cosmos 1943 3.2 03:32:36 10° NNW 03:38:20 76° WSW 03:44:00 10° SSE
Cosmos 407 Rocket 3.7 03:37:58 10° SSW 03:43:15 66° WNW 03:48:32 10° NNE
BREEZE-M DEB (TANK) 3.1 03:43:55 10° W 03:46:51 34° SSW 03:49:40 10° SE
MOS 1 Rocket 4.4 03:42:27 10° SSE 03:47:25 56° ENE 03:52:39 10° N
IRS-P3 4.2 03:42:29 10° N 03:47:48 67° WNW 03:53:05 10° SSW
USA 281 3.7 03:42:37 10° SE 03:49:08 69° ENE 03:55:41 10° NNW
MSX 4.1 03:45:43 10° N 03:51:19 55° WNW 03:56:52 10° SW
